Dewpoint
71 72 71 70 70 70 69 69 69 69 68 68 67 67 70 72 71 70 69 67 70 71 72 71 73 73 74 74 73 74 74 74 75 74 75 75 75 74 74 74 74 74 75 74 73 73 74 72 73 75 76 74 73 74 74 73 73 73 73 72 70 70 70 68 67 68 69 72 72 72 73 73 72 72 71 72 73 73 74 74 74 73 73 72 72
72 72 72 71 70 70 69 69 70 69 68 68 68 67 68 70 71 71 69 67 67 72 71 71 72 72 73 73 73 73 74 74 74 74 75 75 74 75 75 74 73 73 74 74 74 74 75 73 72 73 75 74 75 74 73 73 73 72 72 72 72 72 71 69 69 68 68 70 72 73 74 74 72 72 73 73 72 73 73 73 73 74 74 74 74
72 72 72 71 70 70 69 69 70 69 68 68 68 67 67 68 70 70 70 67 67 70 71 71 72 72 72 73 73 73 74 73 74 74 74 75 74 74 74 75 74 73 73 73 73 74 74 74 73 74 75 73 74 74 73 72 72 72 72 72 72 72 73 72 70 70 70 70 72 72 72 73 72 72 72 73 74 74 74 73 73 74 75 74 74
72 72 72 72 71 70 70 70 70 69 68 68 68 68 67 68 70 70 69 68 67 67 71 71 72 72 72 72 72 73 73 73 73 74 74 74 74 74 73 74 74 74 74 74 74 73 73 74 74 74 74 74 74 73 73 73 73 73 72 73 73 73 73 74 73 71 71 69 70 71 72 71 73 74 75 75 74 73 73 73 74 74 74 74 74
72 72 72 72 71 71 70 70 70 70 69 68 68 68 68 68 69 69 69 68 67 67 71 71 72 72 72 72 72 73 73 73 73 73 74 74 74 74 74 73 74 74 74 74 77 74 74 73 73 74 74 73 73 74 73 73 72 72 72 72 72 72 72 72 71 72 70 69 70 72 73 73 74 74 74 73 73 73 74 74 74 74 74 74 74
72 72 72 72 72 71 71 70 70 69 69 69 68 68 68 68 68 69 69 68 67 67 69 70 71 72 72 72 72 72 73 73 73 73 73 74 74 74 74 74 74 74 74 74 75 75 74 74 73 73 74 73 73 73 73 73 73 73 73 72 72 72 71 71 71 71 71 72 71 72 71 73 73 73 74 74 73 73 73 72 72 73 73 75 77
72 72 72 72 72 71 71 71 70 70 70 69 69 69 68 69 68 69 69 67 67 67 68 69 70 71 72 72 73 72 72 73 73 72 73 73 73 74 74 74 74 74 73 74 74 74 74 74 74 74 73 73 73 73 73 73 73 73 73 73 73 73 73 73 74 73 73 73 73 73 73 73 73 72 73 74 74 72 71 71 71 73 76 74 74
72 72 72 72 72 72 72 71 71 70 70 70 70 69 69 69 69 69 69 67 67 68 68 69 70 71 72 72 72 72 72 72 73 72 72 72 73 73 73 73 73 73 73 73 73 73 74 74 74 74 73 73 73 73 73 73 74 74 74 74 74 73 73 73 72 72 72 72 72 72 72 72 71 72 73 73 72 72 73 73 71 73 74 74 74
72 72 72 72 72 72 72 72 71 71 71 71 70 70 69 69 69 68 68 67 67 68 68 69 70 71 71 72 71 72 72 72 72 72 72 72 72 73 73 73 73 73 72 72 73 73 73 73 73 73 74 77 76 75 75 75 73 73 74 74 74 74 73 73 73 72 73 72 72 72 72 72 72 72 72 71 71 71 72 74 72 73 74 73 73
72 72 72 72 72 72 72 72 72 72 71 71 70 70 69 69 69 68 68 67 67 68 68 69 70 70 71 71 71 72 72 72 71 68 70 72 72 72 73 72 73 73 73 72 72 72 72 72 72 77 73 73 73 72 70 72 74 74 73 74 73 73 73 73 73 73 73 72 73 72 72 72 71 71 71 71 72 71 73 73 73 72 72 72 72
72 72 72 73 73 73 72 72 72 72 71 71 71 70 69 69 69 69 68 68 67 68 69 69 69 70 71 71 71 71 72 72 68 65 66 68 72 72 72 72 72 72 72 72 71 71 71 71 71 74 78 73 72 69 69 68 69 70 71 74 75 73 73 73 73 73 73 73 73 72 72 72 72 72 71 72 71 72 73 72 73 72 71 70 71
72 72 72 73 73 73 73 72 72 72 72 71 71 71 70 69 69 69 69 68 69 68 68 69 69 70 70 71 71 71 71 70 65 64 65 65 69 73 72 72 72 72 72 72 72 71 71 71 71 70 71 72 72 72 70 68 67 67 68 69 71 73 73 73 73 73 73 73 72 73 72 72 72 71 72 71 70 71 72 72 72 72 71 70 70
72 72 73 73 73 73 73 72 72 72 72 72 71 71 71 69 69 70 69 69 69 69 68 69 69 70 70 71 71 71 71 68 64 63 64 64 65 70 72 72 72 72 71 71 71 71 71 71 70 71 69 75 76 72 71 71 67 65 66 67 69 69 68 68 70 73 72 71 70 70 70 70 71 71 71 70 71 72 72 72 72 71 71 71 71
72 72 73 73 73 73 73 73 72 72 72 72 72 71 71 70 69 69 70 70 70 69 68 68 70 70 70 71 72 72 72 69 63 62 63 63 64 67 72 71 71 72 72 72 71 71 71 71 70 70 70 70 71 72 71 71 70 70 69 69 69 71 69 65 64 64 68 69 69 68 69 70 70 70 71 72 72 73 72 73 71 71 72 72 72
72 72 73 73 73 73 73 73 73 72 72 72 72 71 71 71 70 69 69 70 70 70 69 68 70 71 70 70 71 72 73 67 62 61 61 61 63 65 72 72 71 71 72 73 72 72 71 71 71 70 70 70 70 73 72 71 71 71 70 69 70 70 71 71 71 69 68 69 69 69 70 70 70 70 71 73 75 75 75 73 73 73 73 71 70
72 72 72 73 73 73 73 73 73 73 72 72 72 72 71 71 70 69 69 70 70 70 70 69 69 70 70 70 70 71 73 65 61 60 60 61 62 69 72 73 72 72 72 73 73 73 72 72 71 71 70 70 70 68 73 73 72 71 71 71 71 71 72 72 68 69 72 71 70 70 70 71 69 72 72 74 75 74 75 74 72 70 69 67 66
71 72 72 73 73 73 73 73 73 73 73 72 72 72 71 71 71 70 69 69 70 70 70 69 69 69 70 71 70 71 72 66 60 59 59 60 62 71 72 73 73 73 72 72 73 73 73 73 72 72 71 71 69 64 65 74 74 73 72 73 73 73 73 74 68 65 65 64 64 65 65 65 64 65 64 64 70 72 72 70 70 69 66 63 64
71 73 72 73 73 73 73 73 73 73 73 72 72 72 71 71 70 71 69 68 69 70 70 70 69 69 68 70 71 70 70 67 59 58 58 59 64 71 73 73 73 73 72 72 73 74 75 77 77 73 72 71 67 64 64 68 71 74 74 74 75 75 75 76 76 74 65 64 64 64 64 64 65 65 64 62 62 67 71 70 70 66 64 64 64
69 72 73 73 73 73 74 74 73 73 73 73 72 72 72 71 70 71 70 68 68 70 71 70 69 69 69 68 71 70 70 68 57 58 57 58 64 72 73 73 73 73 73 72 72 72 72 76 78 76 73 71 66 64 63 67 69 69 72 74 74 75 76 76 75 74 72 71 72 71 71 69 70 70 71 67 65 69 71 72 71 67 65 65 65
69 71 73 73 73 74 74 74 74 73 73 73 73 72 72 71 70 70 70 69 68 69 70 70 70 70 70 69 69 69 69 72 64 57 57 57 60 72 73 73 73 73 73 72 72 71 71 72 73 67 64 65 64 62 61 61 70 71 71 71 71 71 73 74 73 73 72 73 73 73 72 72 72 72 72 72 72 73 70 71 72 69 67 66 66
69 70 73 73 73 74 74 74 74 74 74 73 73 73 72 72 71 70 70 70 69 69 70 70 70 70 70 70 70 69 69 72 66 55 55 56 57 65 73 73 73 73 73 72 72 72 71 71 71 68 63 61 60 60 59 58 64 72 73 72 72 72 73 74 74 77 74 74 73 73 73 73 73 73 74 74 74 74 73 72 72 70 68 66 64
69 70 73 73 73 74 74 75 75 74 74 74 74 73 73 73 72 71 70 70 69 69 70 71 70 70 70 71 70 70 71 70 70 56 55 55 56 59 71 73 73 73 73 73 73 72 72 72 72 68 63 61 59 57 57 58 58 70 73 67 67 68 74 74 75 74 74 74 73 73 74 74 74 75 74 74 72 72 74 73 71 66 66 66 65
70 70 73 73 73 74 74 75 75 75 75 75 74 73 73 73 72 72 71 70 69 69 70 71 71 71 71 71 71 71 71 71 66 63 55 54 55 57 63 69 67 73 73 73 73 73 73 73 73 69 62 59 58 56 56 57 59 66 63 63 64 63 72 74 73 73 71 72 73 73 72 72 73 72 72 66 63 64 63 64 65 67 69 69 67
70 71 72 73 73 73 74 75 75 75 75 75 75 74 74 73 73 72 71 70 69 69 69 72 71 71 71 71 71 71 72 72 66 62 60 54 55 55 58 62 65 71 73 73 73 73 73 73 71 65 61 57 57 57 58 58 64 60 58 62 62 66 72 72 71 72 71 70 70 71 71 72 72 72 70 65 64 64 65 66 67 67 67 67 68
71 71 72 72 73 73 74 75 75 75 75 75 75 75 74 74 73 72 72 70 69 69 69 70 71 71 71 71 71 71 71 72 71 64 60 56 55 55 56 59 60 63 72 73 73 73 69 66 65 62 61 58 57 58 59 59 58 59 59 61 68 70 71 72 72 71 70 70 70 71 71 71 72 71 68 66 68 69 68 68 68 68 69 69 68
71 71 72 72 73 73 74 74 75 75 75 75 75 75 75 74 74 73 72 71 70 69 69 69 69 70 70 71 71 71 71 72 72 69 63 60 57 55 56 57 60 62 68 72 69 67 64 63 62 61 62 61 63 65 66 67 61 60 61 63 70 71 71 71 71 71 71 70 69 70 70 71 71 68 67 67 68 67 67 65 64 67 66 65 64
72 71 72 72 73 73 73 74 74 75 75 75 75 76 75 75 74 73 73 72 70 69 69 68 69 68 69 70 70 71 71 71 72 70 67 65 63 62 58 60 59 61 66 71 69 66 61 65 65 62 63 62 64 65 65 66 64 64 65 67 69 71 71 71 72 71 70 70 70 70 70 71 69 66 66 67 67 67 67 66 65 65 65 65 63
72 71 72 72 72 73 73 73 74 74 75 74 75 75 75 75 75 74 73 73 71 70 69 69 68 68 68 68 69 70 70 70 73 70 68 66 65 65 63 64 64 65 68 70 70 70 69 63 62 67 67 67 68 69 68 67 66 66 67 67 69 70 71 73 73 70 70 71 70 71 71 67 65 66 67 66 67 67 67 65 65 64 65 64 63
72 72 72 72 72 72 73 73 73 74 74 74 75 75 75 75 75 74 74 74 73 71 70 70 69 69 68 67 67 68 69 70 73 65 67 62 64 66 65 64 65 66 65 64 71 71 70 70 70 70 70 70 70 70 69 68 68 68 68 68 69 70 70 70 71 71 71 71 72 72 68 66 66 66 66 66 67 66 65 64 65 64 65 64 63
72 72 73 72 72 72 73 73 73 74 74 74 74 75 71 66 71 75 74 70 67 64 64 70 70 70 69 68 68 67 68 69 64 60 57 56 56 58 59 58 59 64 62 59 67 71 70 70 70 70 70 71 71 70 70 70 69 69 70 67 69 70 70 70 71 71 72 72 72 68 66 65 65 65 65 65 65 65 64 62 63 64 62 62 62
73 72 73 72 72 72 73 73 73 73 74 74 74 74 72 68 51 49 55 68 63 59 58 59 61 63 69 69 68 62 62 61 57 57 55 54 54 54 54 54 55 56 57 62 68 71 71 70 70 70 70 71 71 71 70 70 70 70 70 70 70 70 69 70 70 70 70 70 69 67 65 64 64 64 63 63 64 64 64 63 63 64 63 63 62
73 73 73 73 72 71 72 72 73 73 73 74 74 74 73 71 68 55 45 51 59 58 55 57 58 58 60 64 69 70 62 58 53 54 54 53 53 52 52 52 52 53 53 58 68 69 71 71 70 70 70 70 70 70 70 71 70 70 70 70 69 69 69 70 70 71 69 68 67 65 64 64 64 63 63 64 62 64 63 62 63 63 63 64 63
75 73 73 72 72 73 72 72 72 73 73 73 74 74 73 72 72 70 64 48 45 53 55 57 55 55 57 58 59 61 61 59 52 52 53 53 52 52 52 51 51 50 52 62 68 68 69 70 71 71 70 70 70 70 70 70 70 70 70 70 69 69 70 70 69 70 68 67 65 64 63 63 63 62 63 63 62 62 63 63 62 63 63 62 62
69 67 68 68 68 68 68 68 70 71 72 73 73 74 73 73 72 70 67 67 66 59 50 47 49 56 55 55 55 57 57 56 52 51 52 52 52 52 51 54 48 48 58 67 68 69 69 69 70 70 71 71 70 70 70 70 70 70 70 70 69 69 70 70 68 67 65 64 64 63 62 62 63 63 63 63 62 60 60 60 63 63 62 61 59
71 71 71 71 69 69 69 69 69 69 68 68 70 72 73 73 72 70 69 69 69 69 68 64 51 43 56 55 53 54 53 53 51 50 51 51 51 49 52 61 62 62 63 67 68 69 69 69 69 70 71 71 71 70 70 70 70 70 69 69 69 69 69 67 66 65 65 64 63 64 63 63 63 62 61 60 60 59 59 61 61 61 62 59 57
70 70 70 71 71 70 70 69 69 69 69 68 68 68 70 71 72 70 69 70 70 69 68 65 60 51 46 42 42 46 48 48 47 48 49 48 48 54 65 66 66 66 66 67 69 69 70 70 70 70 71 71 71 71 71 70 70 70 70 69 69 68 66 64 64 64 64 63 63 61 60 63 64 62 61 60 60 60 60 61 62 63 60 58 55
70 70 70 70 70 71 71 70 70 70 68 69 69 70 70 70 71 72 71 71 70 70 68 63 62 63 60 58 51 44 43 45 46 46 46 48 50 62 69 68 68 67 66 67 69 70 71 71 71 71 71 71 71 72 72 71 69 68 65 68 68 66 65 64 64 63 63 62 62 62 62 63 62 61 61 60 61 62 61 59 61 59 58 57 57
67 67 68 69 70 70 69 69 69 67 68 70 70 70 70 70 70 71 71 71 70 69 66 66 66 68 67 63 63 60 54 49 49 50 49 50 57 68 70 69 69 68 68 68 69 70 71 71 71 72 72 72 72 72 70 68 68 69 68 68 67 66 62 63 62 62 62 62 62 62 61 61 62 63 61 59 59 60 60 58 59 57 57 57 55
67 63 62 65 67 70 70 70 70 70 70 69 69 69 69 69 69 69 70 71 71 69 67 68 69 69 67 63 61 61 64 66 66 64 63 65 67 69 70 71 70 70 69 69 69 70 71 70 68 68 68 68 68 68 68 67 67 67 67 66 65 64 63 63 64 65 64 64 64 62 62 64 64 62 61 60 58 57 58 60 59 57 58 57 55
65 66 65 65 67 67 68 69 69 69 69 68 69 69 68 68 68 68 69 71 72 69 68 68 69 69 65 64 63 66 69 68 67 67 66 67 68 68 68 69 69 70 70 70 70 70 68 67 67 67 67 67 67 67 67 67 67 66 66 66 65 65 65 65 65 65 64 64 64 63 63 63 62 62 61 61 61 61 60 59 59 59 59 59 59
63 63 65 63 63 66 68 67 67 67 68 68 68 68 68 68 68 68 69 70 70 69 69 69 67 65 64 61 57 61 69 69 68 68 68 68 68 66 66 66 65 65 66 66 66 66 66 65 65 65 65 65 65 66 66 66 65 65 65 65 65 65 65 65 64 64 62 61 61 62 63 62 62 62 62 61 60 60 60 59 57 56 57 56 57
61 61 61 62 63 65 65 66 66 66 67 67 67 67 67 67 68 69 68 68 67 65 64 64 63 60 55 51 51 54 67 68 68 67 66 65 65 65 64 64 65 65 65 65 65 64 65 64 65 65 65 65 65 65 65 65 65 65 64 64 64 64 64 64 63 61 62 61 60 61 62 61 61 62 61 60 62 60 60 59 59 58 57 57 57
60 60 59 60 60 62 64 64 64 64 65 65 65 66 66 66 66 66 65 65 64 64 63 63 63 63 61 56 56 58 64 64 64 62 62 63 63 63 62 62 61 61 61 62 62 62 61 60 59 58 57 57 58 59 62 64 64 64 63 62 62 63 63 63 63 64 64 64 62 61 63 62 61 61 61 59 60 60 59 59 60 59 57 57 58
58 58 58 58 58 59 60 62 62 62 62 63 64 64 64 64 65 65 64 64 63 63 63 63 63 62 62 60 59 60 61 61 60 60 60 60 60 60 60 60 60 60 60 60 60 59 58 57 56 55 55 54 54 54 56 58 60 61 60 58 57 57 58 58 58 60 60 60 62 62 62 61 60 61 59 59 60 58 57 59 59 58 57 57 57
57 56 57 57 57 57 57 58 60 61 61 61 61 62 62 62 63 63 63 63 62 63 62 62 61 61 59 58 58 58 58 57 57 57 57 58 59 59 60 59 59 58 58 58 58 57 56 56 54 53 52 51 51 51 51 51 52 54 55 56 55 55 54 55 58 59 59 58 56 55 56 57 57 55 52 52 55 58 58 54 53 54 52 52 52
55 55 55 55 55 56 56 55 56 56 57 58 59 60 61 62 62 62 62 61 61 60 60 59 59 58 57 56 55 55 55 55 55 55 56 56 55 55 55 55 54 54 54 54 54 53 53 52 52 51 49 48 48 48 48 48 48 47 46 48 49 50 53 55 56 56 58 59 58 57 56 53 54 56 56 53 52 52 51 51 51 51 52 51 51
53 53 54 54 54 54 55 55 55 54 54 55 55 56 57 58 59 58 58 59 58 58 57 57 57 56 55 55 55 54 54 54 53 53 53 52 52 52 51 50 50 49 49 49 48 48 47 46 45 45 44 43 42 42 42 41 41 41 41 41 41 44 48 52 52 53 54 56 57 57 54 53 53 53 53 52 52 51 51 50 50 51 50 50 50
52 52 52 52 52 52 52 53 54 54 54 53 53 54 54 54 55 56 56 56 56 56 55 55 55 55 54 54 54 54 54 53 53 53 52 52 52 51 50 49 49 48 47 46 46 46 47 46 42 40 40 40 40 39 39 38 39 38 38 38 39 41 42 46 53 54 55 55 56 54 54 52 51 52 52 51 51 50 50 50 50 50 51 51 50
51 50 50 50 51 50 51 51 51 51 52 52 52 52 52 52 52 51 51 51 51 51 51 52 53 53 52 51 51 51 51 50 50 50 50 50 50 50 48 48 47 46 44 43 42 41 40 38 38 37 37 37 37 37 37 38 37 37 37 37 37 38 37 40 45 49 50 53 52 53 52 51 50 50 51 51 50 50 51 51 50 51 51 51 51
49 49 49 49 49 49 50 50 49 49 50 50 49 49 50 50 50 50 49 49 49 48 47 48 49 49 49 48 48 48 48 47 48 49 49 49 49 49 47 46 43 42 41 41 40 40 38 37 37 37 38 37 37 37 36 36 36 36 36 36 36 35 35 37 39 43 50 52 52 51 51 51 50 49 49 50 50 50 50 50 51 50 51 51 51
48 47 48 48 48 48 48 47 47 48 48 48 48 48 48 48 48 48 48 48 48 48 48 48 47 47 47 48 49 48 48 48 47 47 45 44 43 43 43 41 41 39 38 38 38 38 38 38 37 37 37 37 36 36 36 36 36 35 36 36 35 34 34 36 39 37 42 45 50 49 50 50 50 48 48 48 49 50 51 51 50 50 50 50 51